Time,TemperatureF,DewpointF,PressureIn,WindDirection,WindDirectionDegrees,WindSpeedMPH,WindSpeedGustMPH,Humidity,HourlyPrecipIn,Conditions,Clouds,dailyrainin,SolarRadiationWatts/m^2,SoftwareType,DateUTC
2013-05-01 00:07:00,27.9,26.0,30.32,NNW,335,5.0,-999.0,93,-99.99,,,0.00,0,weatherlink.com 1.10,2013-05-01 06:07:00,
2013-05-01 00:22:00,27.8,26.0,30.33,North,360,7.0,-999.0,93,-99.99,,,0.00,0,weatherlink.com 1.10,2013-05-01 06:22:00,
2013-05-01 00:37:00,27.9,26.0,30.33,NNW,333,6.0,-999.0,93,-99.99,,,0.00,0,weatherlink.com 1.10,2013-05-01 06:37:00,
2013-05-01 00:52:00,27.7,26.0,30.34,NNE,15,8.0,-999.0,93,-99.99,,,0.00,0,weatherlink.com 1.10,2013-05-01 06:52:00,
2013-05-01 01:07:00,27.6,26.0,30.34,NNE,24,11.0,-999.0,93,-99.99,,,0.00,0,weatherlink.com 1.10,2013-05-01 07:07:00,
2013-05-01 01:22:00,27.4,26.0,30.35,NNE,17,8.0,-999.0,93,-99.99,,,0.00,0,weatherlink.com 1.10,2013-05-01 07:22:00,
2013-05-01 01:37:00,27.2,26.0,30.35,NNE,15,6.0,-999.0,93,-99.99,,,0.00,0,weatherlink.com 1.10,2013-05-01 07:37:00,
2013-05-01 01:53:00,27.1,25.0,30.35,North,9,7.0,-999.0,93,-99.99,,,0.00,0,weatherlink.com 1.10,2013-05-01 07:53:00,
2013-05-01 02:08:00,27.0,25.0,30.35,NNW,340,6.0,-999.0,93,-99.99,,,0.00,0,weatherlink.com 1.10,2013-05-01 08:08:00,
2013-05-01 02:23:00,27.0,25.0,30.36,NNE,13,10.0,-999.0,93,-99.99,,,0.00,0,weatherlink.com 1.10,2013-05-01 08:23:00,
2013-05-01 02:38:00,26.9,25.0,30.36,NNE,19,6.0,-999.0,93,-99.99,,,0.00,0,weatherlink.com 1.10,2013-05-01 08:38:00,
2013-05-01 02:53:00,26.9,25.0,30.37,NE,34,7.0,-999.0,93,-99.99,,,0.00,0,weatherlink.com 1.10,2013-05-01 08:53:00,
2013-05-01 03:08:00,26.9,25.0,30.38,NNE,22,7.0,-999.0,93,-99.99,,,0.00,0,weatherlink.com 1.10,2013-05-01 09:08:00,
2013-05-01 03:23:00,26.9,25.0,30.39,NNE,30,8.0,-999.0,93,-99.99,,,0.00,0,weatherlink.com 1.10,2013-05-01 09:23:00,
2013-05-01 03:38:00,27.0,25.0,30.39,North,5,5.0,-999.0,93,-99.99,,,0.00,0,weatherlink.com 1.10,2013-05-01 09:38:00,
2013-05-01 03:53:00,26.9,25.0,30.39,North,360,5.0,-999.0,93,-99.99,,,0.00,0,weatherlink.com 1.10,2013-05-01 09:53:00,
2013-05-01 04:08:00,26.9,25.0,30.40,NNE,25,4.0,-999.0,94,-99.99,,,0.00,0,weatherlink.com 1.10,2013-05-01 10:08:00,
2013-05-01 04:23:00,27.1,26.0,30.41,NNE,33,5.0,-999.0,94,-99.99,,,0.00,0,weatherlink.com 1.10,2013-05-01 10:23:00,
2013-05-01 04:38:00,27.2,26.0,30.42,NE,46,4.0,-999.0,93,-99.99,,,0.00,0,weatherlink.com 1.10,2013-05-01 10:38:00,
2013-05-01 04:53:00,27.2,26.0,30.42,NE,46,6.0,-999.0,93,-99.99,,,0.00,0,weatherlink.com 1.10,2013-05-01 10:53:00,
2013-05-01 05:08:00,27.1,25.0,30.43,NE,55,5.0,-999.0,93,-99.99,,,0.00,0,weatherlink.com 1.10,2013-05-01 11:08:00,
2013-05-01 05:23:00,27.1,25.0,30.44,ENE,70,2.0,-999.0,93,-99.99,,,0.00,0,weatherlink.com 1.10,2013-05-01 11:23:00,
2013-05-01 05:38:00,27.0,25.0,30.45,NE,54,4.0,-999.0,93,-99.99,,,0.00,0,weatherlink.com 1.10,2013-05-01 11:38:00,
2013-05-01 05:53:00,26.7,25.0,30.46,ESE,109,5.0,-999.0,93,-99.99,,,0.00,0,weatherlink.com 1.10,2013-05-01 11:53:00,
2013-05-01 06:08:00,26.1,24.0,30.48,NNE,31,10.0,-999.0,93,-99.99,,,0.00,0,weatherlink.com 1.10,2013-05-01 12:08:00,
2013-05-01 06:23:00,25.6,24.0,30.49,ENE,57,6.0,-999.0,93,-99.99,,,0.00,12,weatherlink.com 1.10,2013-05-01 12:23:00,
2013-05-01 06:38:00,25.7,24.0,30.50,NE,36,4.0,-999.0,93,-99.99,,,0.00,32,weatherlink.com 1.10,2013-05-01 12:38:00,
2013-05-01 06:53:00,25.7,24.0,30.51,NE,44,4.0,-999.0,93,-99.99,,,0.00,39,weatherlink.com 1.10,2013-05-01 12:53:00,
2013-05-01 07:08:00,25.7,24.0,30.53,ENE,62,3.0,-999.0,93,-99.99,,,0.00,51,weatherlink.com 1.10,2013-05-01 13:08:00,
2013-05-01 07:23:00,25.7,24.0,30.54,ENE,71,6.0,-999.0,93,-99.99,,,0.00,76,weatherlink.com 1.10,2013-05-01 13:23:00,
2013-05-01 07:38:00,25.0,23.0,30.55,ENE,78,11.0,-999.0,93,-99.99,,,0.00,134,weatherlink.com 1.10,2013-05-01 13:38:00,
2013-05-01 07:54:00,24.7,23.0,30.56,East,98,11.0,-999.0,93,-99.99,,,0.00,167,weatherlink.com 1.10,2013-05-01 13:54:00,
2013-05-01 08:09:00,25.1,23.0,30.57,East,86,4.0,-999.0,92,-99.99,,,0.00,278,weatherlink.com 1.10,2013-05-01 14:09:00,
2013-05-01 08:24:00,25.1,23.0,30.59,ENE,76,6.0,-999.0,92,-99.99,,,0.00,227,weatherlink.com 1.10,2013-05-01 14:24:00,
2013-05-01 08:39:00,24.7,23.0,30.59,ENE,74,5.0,-999.0,91,-99.99,,,0.00,276,weatherlink.com 1.10,2013-05-01 14:39:00,
2013-05-01 08:54:00,25.0,23.0,30.60,East,81,5.0,-999.0,90,-99.99,,,0.00,373,weatherlink.com 1.10,2013-05-01 14:54:00,
2013-05-01 09:09:00,25.7,23.0,30.61,East,79,6.0,-999.0,90,-99.99,,,0.00,520,weatherlink.com 1.10,2013-05-01 15:09:00,
2013-05-01 09:24:00,25.7,23.0,30.62,East,98,6.0,-999.0,89,-99.99,,,0.00,466,weatherlink.com 1.10,2013-05-01 15:24:00,
2013-05-01 09:39:00,25.5,23.0,30.63,East,97,7.0,-999.0,89,-99.99,,,0.00,427,weatherlink.com 1.10,2013-05-01 15:39:00,
2013-05-01 09:54:00,25.6,23.0,30.64,East,86,5.0,-999.0,90,-99.99,,,0.00,490,weatherlink.com 1.10,2013-05-01 15:54:00,
2013-05-01 10:09:00,25.9,23.0,30.65,ENE,74,4.0,-999.0,90,-99.99,,,0.00,422,weatherlink.com 1.10,2013-05-01 16:09:00,
2013-05-01 10:24:00,26.7,24.0,30.66,ENE,74,5.0,-999.0,89,-99.99,,,0.00,527,weatherlink.com 1.10,2013-05-01 16:24:00,
2013-05-01 10:39:00,27.4,25.0,30.66,East,101,7.0,-999.0,89,-99.99,,,0.00,663,weatherlink.com 1.10,2013-05-01 16:39:00,
2013-05-01 10:54:00,27.5,24.0,30.67,ESE,109,9.0,-999.0,88,-99.99,,,0.01,638,weatherlink.com 1.10,2013-05-01 16:54:00,
2013-05-01 11:09:00,27.8,25.0,30.68,ESE,110,7.0,-999.0,88,-99.99,,,0.02,654,weatherlink.com 1.10,2013-05-01 17:09:00,
2013-05-01 11:24:00,28.0,25.0,30.69,East,98,9.0,-999.0,87,-99.99,,,0.02,976,weatherlink.com 1.10,2013-05-01 17:24:00,
2013-05-01 11:39:00,28.1,25.0,30.70,ESE,105,9.0,-999.0,87,-99.99,,,0.03,796,weatherlink.com 1.10,2013-05-01 17:39:00,
2013-05-01 11:54:00,29.0,25.0,30.70,East,97,6.0,-999.0,86,-99.99,,,0.04,831,weatherlink.com 1.10,2013-05-01 17:54:00,
2013-05-01 12:09:00,29.4,26.0,30.71,ESE,108,5.0,-999.0,86,-99.99,,,0.06,605,weatherlink.com 1.10,2013-05-01 18:09:00,
2013-05-01 12:24:00,29.3,26.0,30.71,East,92,6.0,-999.0,87,-99.99,,,0.08,759,weatherlink.com 1.10,2013-05-01 18:24:00,
2013-05-01 12:39:00,30.0,26.0,30.71,East,92,2.0,-999.0,86,-99.99,,,0.09,847,weatherlink.com 1.10,2013-05-01 18:39:00,
2013-05-01 12:55:00,30.8,27.0,30.72,ENE,78,3.0,-999.0,86,-99.99,,,0.09,823,weatherlink.com 1.10,2013-05-01 18:55:00,
2013-05-01 13:25:00,32.3,28.0,30.73,East,92,0.0,-999.0,84,-99.99,,,0.09,965,weatherlink.com 1.10,2013-05-01 19:25:00,
2013-05-01 13:40:00,33.1,28.0,30.73,ESE,109,0.0,-999.0,82,-99.99,,,0.09,1396,weatherlink.com 1.10,2013-05-01 19:40:00,
2013-05-01 13:55:00,33.3,29.0,30.74,NNE,33,0.0,-999.0,83,-99.99,,,0.09,645,weatherlink.com 1.10,2013-05-01 19:55:00,
2013-05-01 14:10:00,33.5,29.0,30.74,NE,53,0.0,-999.0,84,-99.99,,,0.09,422,weatherlink.com 1.10,2013-05-01 20:10:00,
2013-05-01 14:25:00,32.9,29.0,30.75,WNW,284,0.0,-999.0,86,-99.99,,,0.09,411,weatherlink.com 1.10,2013-05-01 20:25:00,
2013-05-01 14:40:00,32.8,29.0,30.75,NNE,20,0.0,-999.0,85,-99.99,,,0.09,473,weatherlink.com 1.10,2013-05-01 20:40:00,
2013-05-01 14:55:00,33.5,29.0,30.76,North,5,0.0,-999.0,83,-99.99,,,0.09,643,weatherlink.com 1.10,2013-05-01 20:55:00,
2013-05-01 15:10:00,33.8,29.0,30.76,NNE,28,0.0,-999.0,81,-99.99,,,0.09,360,weatherlink.com 1.10,2013-05-01 21:10:00,
2013-05-01 15:25:00,33.5,28.0,30.76,ENE,63,4.0,-999.0,81,-99.99,,,0.09,443,weatherlink.com 1.10,2013-05-01 21:25:00,
2013-05-01 15:40:00,34.7,30.0,30.76,SW,231,3.0,-999.0,84,-99.99,,,0.09,1032,weatherlink.com 1.10,2013-05-01 21:40:00,
2013-05-01 15:55:00,34.2,29.0,30.76,NNW,341,0.0,-999.0,82,-99.99,,,0.09,309,weatherlink.com 1.10,2013-05-01 21:55:00,
2013-05-01 16:10:00,33.1,29.0,30.76,ESE,122,0.0,-999.0,84,-99.99,,,0.09,144,weatherlink.com 1.10,2013-05-01 22:10:00,
2013-05-01 16:25:00,32.0,27.0,30.77,NE,55,3.0,-999.0,83,-99.99,,,0.09,200,weatherlink.com 1.10,2013-05-01 22:25:00,
2013-05-01 16:40:00,32.5,27.0,30.77,ENE,68,5.0,-999.0,80,-99.99,,,0.09,237,weatherlink.com 1.10,2013-05-01 22:40:00,
2013-05-01 16:55:00,33.6,28.0,30.78,ENE,71,0.0,-999.0,80,-99.99,,,0.09,526,weatherlink.com 1.10,2013-05-01 22:55:00,
2013-05-01 17:10:00,34.0,28.0,30.79,SW,215,3.0,-999.0,80,-99.99,,,0.09,257,weatherlink.com 1.10,2013-05-01 23:10:00,
2013-05-01 17:25:00,32.7,29.0,30.79,NNW,328,3.0,-999.0,87,-99.99,,,0.09,100,weatherlink.com 1.10,2013-05-01 23:25:00,
2013-05-01 17:40:00,31.4,29.0,30.80,NNW,337,2.0,-999.0,89,-99.99,,,0.09,109,weatherlink.com 1.10,2013-05-01 23:40:00,
2013-05-01 17:55:00,30.8,28.0,30.80,WNW,292,5.0,-999.0,90,-99.99,,,0.09,83,weatherlink.com 1.10,2013-05-01 23:55:00,
2013-05-01 18:10:00,30.2,28.0,30.81,WNW,291,6.0,-999.0,90,-99.99,,,0.09,83,weatherlink.com 1.10,2013-05-02 00:10:00,
2013-05-01 18:25:00,29.7,27.0,30.82,WNW,286,4.0,-999.0,91,-99.99,,,0.09,72,weatherlink.com 1.10,2013-05-02 00:25:00,
2013-05-01 18:40:00,29.8,28.0,30.82,WNW,288,0.0,-999.0,92,-99.99,,,0.09,74,weatherlink.com 1.10,2013-05-02 00:40:00,
2013-05-01 18:55:00,29.8,28.0,30.83,WNW,286,0.0,-999.0,92,-99.99,,,0.09,44,weatherlink.com 1.10,2013-05-02 00:55:00,
2013-05-01 19:10:00,29.9,28.0,30.83,WNW,285,0.0,-999.0,92,-99.99,,,0.09,84,weatherlink.com 1.10,2013-05-02 01:10:00,
2013-05-01 19:25:00,30.5,29.0,30.84,WNW,287,0.0,-999.0,92,-99.99,,,0.09,58,weatherlink.com 1.10,2013-05-02 01:25:00,
2013-05-01 19:40:00,30.6,28.0,30.85,WNW,292,0.0,-999.0,91,-99.99,,,0.09,28,weatherlink.com 1.10,2013-05-02 01:40:00,
2013-05-01 19:55:00,30.6,28.0,30.85,WNW,289,0.0,-999.0,89,-99.99,,,0.09,14,weatherlink.com 1.10,2013-05-02 01:55:00,
2013-05-01 20:10:00,30.6,28.0,30.86,WNW,289,0.0,-999.0,89,-99.99,,,0.09,7,weatherlink.com 1.10,2013-05-02 02:10:00,
2013-05-01 20:25:00,30.3,27.0,30.87,WNW,289,0.0,-999.0,88,-99.99,,,0.09,0,weatherlink.com 1.10,2013-05-02 02:25:00,
2013-05-01 20:40:00,29.8,27.0,30.88,WNW,289,0.0,-999.0,88,-99.99,,,0.09,0,weatherlink.com 1.10,2013-05-02 02:40:00,
2013-05-01 20:55:00,29.7,27.0,30.88,WNW,289,0.0,-999.0,88,-99.99,,,0.09,0,weatherlink.com 1.10,2013-05-02 02:55:00,
2013-05-01 21:11:00,29.6,27.0,30.89,WNW,289,0.0,-999.0,88,-99.99,,,0.09,0,weatherlink.com 1.10,2013-05-02 03:11:00,
2013-05-01 21:26:00,29.5,26.0,30.89,WNW,289,0.0,-999.0,87,-99.99,,,0.09,0,weatherlink.com 1.10,2013-05-02 03:26:00,
2013-05-01 21:41:00,29.6,25.0,30.90,WNW,289,0.0,-999.0,84,-99.99,,,0.09,0,weatherlink.com 1.10,2013-05-02 03:41:00,
2013-05-01 21:56:00,29.9,26.0,30.91,WSW,242,1.0,-999.0,86,-99.99,,,0.09,0,weatherlink.com 1.10,2013-05-02 03:56:00,
2013-05-01 22:11:00,29.9,27.0,30.91,WSW,242,1.0,-999.0,88,-99.99,,,0.09,0,weatherlink.com 1.10,2013-05-02 04:11:00,
2013-05-01 22:26:00,29.7,27.0,30.91,WSW,242,0.0,-999.0,88,-99.99,,,0.09,0,weatherlink.com 1.10,2013-05-02 04:26:00,
2013-05-01 22:41:00,29.5,26.0,30.91,WSW,242,0.0,-999.0,85,-99.99,,,0.09,0,weatherlink.com 1.10,2013-05-02 04:41:00,
2013-05-01 22:56:00,29.3,24.0,30.91,WSW,242,0.0,-999.0,82,-99.99,,,0.09,0,weatherlink.com 1.10,2013-05-02 04:56:00,
2013-05-01 23:11:00,29.2,25.0,30.92,SSW,196,0.0,-999.0,83,-99.99,,,0.09,0,weatherlink.com 1.10,2013-05-02 05:11:00,
2013-05-01 23:26:00,28.7,25.0,30.92,SSW,192,0.0,-999.0,84,-99.99,,,0.09,0,weatherlink.com 1.10,2013-05-02 05:26:00,
2013-05-01 23:41:00,28.5,23.0,30.93,SSW,192,0.0,-999.0,81,-99.99,,,0.09,0,weatherlink.com 1.10,2013-05-02 05:41:00,
2013-05-01 23:56:00,28.5,24.0,30.93,South,184,0.0,-999.0,83,-99.99,,,0.09,0,weatherlink.com 1.10,2013-05-02 05:56:00,